Location: Breungeshain
(50.5000°N, 9.2000°E)
Time: 15:23:14
(UTC+00:00)

ISS - Pass Details

Date: 21 May 2018
Orbit: 402 x 407 km, 51.6° (Epoch: 27 May)

Event Time Altitude Azimuth Distance (km) Brightness Sun altitude
Rises 21:50:43 0° 249° (WSW) 2,315 0.0 -16.5°
Reaches altitude 10° 21:52:48 10° 248° (WSW) 1,457 -1.0 -16.6°
Maximum altitude 21:56:03 77° 164° (SSE) 418 -4.0 -16.8°
Drops below altitude 10° 21:59:20 10° 76° (ENE) 1,460 -1.1 -17.0°
Sets 22:01:25 0° 75° (ENE) 2,321 0.0 -17.1°
